Location: *
(40.8320°S, 106.3951°E)
Time: 08:05:36
(UTC+00:00)

Daily predictions for brighter satellites

Satellite Brightness Start Highest point End
(mag) Time Altitude Azimuth Time Altitude Azimuth Time Altitude Azimuth
STARLINK-51 3.5 12:01:03 10° SW 12:05:11 76° SE 12:06:28 42° ENE
STARLINK-30 3.5 12:02:42 10° SW 12:06:49 78° SE 12:08:02 44° ENE
STARLINK-72 3.5 12:04:23 10° SW 12:08:30 81° SE 12:09:39 46° ENE
Okean-O 2.7 12:04:06 10° S 12:08:37 79° WSW 12:13:05 10° NNW
STARLINK-1135 3.5 12:04:45 10° NW 12:08:55 73° NE 12:10:13 42° ESE
Cosmos 2228 4.2 12:05:22 10° SSW 12:09:28 44° W 12:13:32 10° NNW
DNEPR-1 R/B 4.4 12:03:59 10° SSW 12:09:46 70° SE 12:14:22 23° NE
STARLINK-50 3.5 12:06:00 10° SW 12:10:08 84° SE 12:11:13 48° ENE
NOSS 3-1 (C) 4.1 12:02:11 10° NNW 12:11:00 81° ENE 12:18:53 10° SE
STARLINK-1025 3.5 12:07:09 10° SW 12:11:24 80° SE 12:12:29 48° ENE
STARLINK-1162 3.5 12:07:32 10° NW 12:11:45 78° NE 12:12:59 45° ESE
CZ-2C R/B 3.9 12:07:18 10° N 12:11:47 70° WNW 12:16:17 10° SSW
STARLINK-59 3.5 12:07:46 10° SW 12:11:54 90° ESE 12:12:58 48° NE
COSMOS 2406 3.3 12:06:44 10° SSW 12:12:29 77° WNW 12:18:08 10° NNE
STARLINK-56 3.5 12:09:19 10° SW 12:13:27 88° SE 12:14:25 51° NE
Cosmos 371 Rocket 3.9 12:08:41 10° NNW 12:13:33 60° WSW 12:18:27 10° SSE
STARLINK-1141 3.5 12:09:42 10° NW 12:13:53 80° NE 12:14:59 48° ESE
STARLINK-73 3.5 12:10:59 10° SW 12:15:06 89° NW 12:16:00 54° NE
CSL-04 Rocket 3.8 12:10:24 10° SSE 12:15:45 47° E 12:20:56 10° N
STARLINK-1017 3.5 12:12:07 10° SW 12:16:22 87° SE 12:17:15 55° NE
Cosmos 1850 Rocket 4.0 12:11:12 10° SSW 12:16:35 83° WNW 12:21:37 11° NNE
STARLINK-1157 3.5 12:12:28 10° NW 12:16:42 85° NE 12:17:45 50° ESE
STARLINK-38 3.5 12:12:38 10° SW 12:16:46 86° NW 12:17:36 55° NE
Lacrosse 5 rocket 1.1 12:12:57 10° SW 12:17:07 70° SE 12:17:32 63° E
BREEZE-M DEB (TANK) 3.1 12:15:05 10° W 12:17:48 54° SSW 12:21:08 23° SE
Shenzhou-11 Module 3.1 12:15:30 10° WSW 12:17:23 36° SW 12:17:23 36° SW
STARLINK-65 3.5 12:14:18 10° SW 12:18:25 84° NW 12:19:12 57° NE
STARLINK-1140 3.5 12:14:38 10° NW 12:18:50 87° NNE 12:19:45 54° SE
Cosmos 1626 Rocket 3.5 12:15:33 10° N 12:19:49 60° E 12:24:11 10° SSE
Cosmos 1300 2.7 12:15:58 10° S 12:19:37 63° ESE 12:19:37 63° ESE
STARLINK-53 3.6 12:16:02 10° SW 12:20:09 78° NW 12:20:54 57° NNE
MOS 1 Rocket 3.3 12:15:34 10° NNE 12:20:43 78° ESE 12:25:38 10° S
Lacrosse 5 3.4 12:16:22 10° W 12:21:00 33° SSW 12:25:10 12° SSE
STARLINK-1159 3.6 12:17:27 10° NW 12:21:40 88° SW 12:22:33 56° SE
STARLINK-1014 3.5 12:17:43 10° SW 12:21:51 85° NW 12:22:23 65° NE
Cosmos 2278 Rocket 2.5 12:16:32 10° NNW 12:22:12 68° WSW 12:27:56 10° SSE
STARLINK-1156 3.6 12:19:38 10° NW 12:23:50 86° SW 12:24:33 60° SE
STARLINK-1171 3.6 12:22:27 10° NW 12:26:40 81° SW 12:27:21 61° SE
STARLINK-1148 3.6 12:24:36 10° NW 12:28:48 79° SW 12:29:20 66° SSE
STARLINK-24 3.8 12:26:11 10° WSW 12:30:14 63° NW 12:30:37 59° N
STARLINK-1048 3.7 12:27:03 10° SW 12:31:16 71° NW 12:31:36 67° N
STARLINK-1155 3.7 12:27:27 10° WNW 12:31:40 74° SW 12:32:08 65° SSE
Cosmos 1626 2.7 12:28:16 10° NNW 12:31:58 57° W 12:35:43 10° S
STARLINK-1158 3.7 12:29:36 10° WNW 12:33:47 73° SW 12:34:06 68° S
Cosmos 1709 Rocket 4.0 12:27:42 10° N 12:33:52 84° W 12:40:12 10° S
Cosmos 1331 Rocket 3.9 12:28:42 10° NNW 12:33:56 90° NW 12:39:18 10° SSE
STARLINK-1049 3.8 12:32:04 10° WSW 12:36:15 65° NW 12:36:23 64° NNW
Meteor 2-1 Rocket 4.3 12:30:52 10° S 12:36:18 53° ESE 12:36:18 53° ESE
STARLINK-1166 3.8 12:32:27 10° WNW 12:36:39 68° SW 12:36:56 66° S
STARLINK-1051 4.0 12:37:05 10° WSW 12:41:11 58° NW 12:41:11 58° NW
STARLINK-1165 4.0 12:37:28 10° WNW 12:41:39 63° SW 12:41:44 63° SSW
SL-14 R/B 4.4 12:38:23 10° NNW 12:42:06 42° WSW 12:45:52 10° S
USA 215 4.5 12:48:22 25° NNE 12:48:22 25° NNE 12:51:29 10° N
STARLINK-1169 4.1 12:42:28 10° WNW 12:46:29 57° SW 12:46:29 57° SW
CZ-4 R/B 2.8 12:46:49 10° S 12:50:38 37° WSW 12:54:20 10° NW
Cosmos 1939 Rocket 4.0 12:47:06 10° S 12:51:06 45° WSW 12:55:01 10° NW
STARLINK-1178 4.4 12:47:29 10° WNW 12:51:17 51° SW 12:51:17 51° SW
FALCON 9 R/B 3.4 12:55:22 10° WNW 12:59:10 24° NNW 12:59:10 24° NNW
YAOGAN 1 4.0 13:01:38 10° S 13:05:42 36° WSW 13:09:41 10° NW
Exosat Rocket 4.1 13:05:35 10° SSW 13:11:10 78° WNW 13:12:04 66° N
USA 267 4.5 13:17:44 28° SSE 13:18:07 28° SSE 13:23:31 10° SW
CZ-2C R/B 4.4 13:16:15 10° NNW 13:20:55 29° W 13:25:44 10° SW
Cosmos 2082 Rocket 3.2 13:28:38 10° SW 13:33:31 43° W 13:33:31 43° W
CZ-4C R/B 4.3 19:19:57 31° SE 19:19:57 31° SE 19:23:12 10° SE
Cosmos 2219 Rocket 3.8 19:57:03 30° ESE 19:57:03 30° ESE 20:00:40 10° SE
CZ-3 R/B 4.4 19:57:36 49° NW 20:05:43 58° N 20:18:19 10° ENE
COSMOS 2428 3.5 20:20:51 48° E 20:20:51 48° E 20:25:38 10° SSE
Cosmos 2279 Rocket 4.5 20:25:37 51° NE 20:26:45 58° E 20:32:56 10° SSE
ISS -0.4 20:36:26 11° SE 20:36:26 11° SE 20:36:48 10° SE
H-2A R/B 3.7 20:31:37 10° SSE 20:34:16 32° SE 20:34:16 32° SE
BREEZE M DEB (TANK) 4.3 20:39:56 27° ENE 20:39:56 27° ENE 20:43:59 10° ESE
SL-16 R/B 4.4 20:42:43 13° SSW 20:42:43 13° SSW 20:43:42 10° S
Cosmos 2360 Rocket 3.7 20:44:14 24° SSW 20:44:14 24° SSW 20:46:56 10° S
ATLAS 3B CENTAUR R/B 4.2 20:45:20 25° N 20:45:34 25° N 20:54:26 10° NE
Cosmos 2322 Rocket 4.3 20:50:07 14° SSW 20:50:07 14° SSW 20:51:23 10° S
Meteor 2-13 Rocket 4.3 20:51:13 10° S 20:57:23 75° W 21:03:27 10° N
USA 229 DEB 3.5 20:55:55 38° SW 20:58:48 86° WNW 21:05:19 10° NNE
USA 229 3.5 20:55:56 37° SW 20:58:55 87° WNW 21:05:26 10° NNE
STARLINK-1122 4.4 21:00:00 50° ESE 21:00:00 50° ESE 21:03:35 10° ENE
Cosmos 2333 Rocket 2.2 21:00:28 65° SW 21:00:28 65° SW 21:05:55 10° SSE
Cosmos 2056 Rocket 4.1 21:04:41 45° N 21:04:41 45° N 21:08:25 10° N
SL-16 R/B 4.1 20:59:23 10° S 21:02:01 20° SSW 21:02:01 20° SSW
STARLINK-1126 4.2 21:04:46 56° ESE 21:04:46 56° ESE 21:08:35 10° ENE
Cosmos 2237 Rocket 3.1 20:59:55 15° N 21:04:28 46° ENE 21:09:55 10° SE
CZ-4C R/B 3.9 21:05:09 27° SW 21:05:20 27° SW 21:11:01 10° SSE
SJ-12 4.3 21:02:19 10° NNE 21:06:22 64° ESE 21:10:29 10° S
NOSS 3-1 (A) 3.4 21:03:56 19° SSW 21:08:29 75° SE 21:13:55 10° NE
STARLINK-1082 4.0 21:09:34 63° SE 21:09:34 63° SE 21:13:37 10° ENE
Landsat 5 3.8 21:07:39 10° SSE 21:11:04 56° S 21:11:04 56° S
STARLINK-1100 3.8 21:14:21 69° SSE 21:14:27 69° SE 21:18:37 10° ENE
Cosmos 2278 Rocket 2.8 21:11:00 10° SSW 21:16:37 55° ESE 21:22:11 10° NE
USA 215 3.4 21:10:10 10° ENE 21:16:44 75° SE 21:21:55 18° SW
ALOS 2.1 21:12:55 10° N 21:17:37 81° WNW 21:22:24 10° SSW
CZ-4B R/B 4.4 21:13:14 10° NE 21:18:36 44° ESE 21:23:58 10° S
STARLINK-1083 3.7 21:19:05 71° S 21:19:23 75° SE 21:23:34 10° ENE
STARLINK-1125 3.6 21:23:52 68° SSW 21:24:22 82° SE 21:28:33 10° NE
CZ-4B R/B 2.3 21:22:03 10° SSE 21:25:20 49° E 21:27:13 23° NNE
SAR-Lupe-4 3.8 21:23:34 10° S 21:26:41 60° S 21:26:41 60° S
NOSS 2-3 (C) 4.2 21:20:50 10° SW 21:27:43 87° ESE 21:32:54 10° NE
STARLINK-1109 3.5 21:28:39 61° SW 21:29:20 89° SSE 21:33:32 10° NE
Cosmos 1356 4.2 21:27:13 18° NNE 21:29:33 53° E 21:33:00 10° SSE
MOS 1-B 4.3 21:24:22 10° NNE 21:30:10 88° WNW 21:36:04 10° SSW
Cosmos 2292 Rocket 4.2 21:25:58 10° S 21:30:29 73° E 21:36:30 10° NNE
Meteor 2-9 Rocket 4.1 21:27:35 27° NNW 21:30:39 63° WSW 21:36:10 10° S
Cosmos 1536 Rocket 4.1 21:28:09 10° S 21:32:39 60° E 21:37:06 10° NNE
STARLINK-1091 3.5 21:33:26 55° WSW 21:34:19 84° NW 21:38:30 10° NE
Cosmos 2266 Rocket 4.0 21:28:40 10° S 21:34:56 90° E 21:41:15 10° N
NOSS 3-1 (C) 3.5 21:33:55 39° W 21:35:01 43° WNW 21:40:04 10° N
BREEZE-M DEB (TANK) 4.4 21:34:03 24° SW 21:36:53 43° SSE 21:53:01 10° E
Cosmos 1452 Rocket 3.5 21:33:01 10° SSW 21:38:22 83° ESE 21:43:38 10° NNE
STARLINK-1072 3.5 21:38:17 49° WSW 21:39:20 76° NW 21:43:31 10° NE
Cosmos 2219 Rocket 2.8 21:38:49 33° WSW 21:39:29 34° WSW 21:44:39 10° S
NOAA 6 4.2 21:36:39 10° NNE 21:41:51 78° ESE 21:47:07 10° S
STARLINK-1096 3.5 21:43:03 43° WSW 21:44:18 69° NW 21:48:27 10° NE
Abrixas rocket 3.1 21:44:34 33° S 21:44:34 33° S 21:47:11 10° SE
SAR-Lupe-1 4.2 21:41:00 10° S 21:44:34 51° WSW 21:44:48 50° W
STARLINK-1079 3.6 21:47:50 38° WSW 21:49:16 63° NW 21:53:24 10° NE
Cosmos 468 4.4 21:46:01 10° NNW 21:51:20 80° WSW 21:56:40 10° SSE
Cosmos 972 Rocket 4.4 21:45:10 10° SSW 21:51:35 63° WNW 21:57:13 10° N
STARLINK-1116 3.7 21:52:39 33° WSW 21:54:15 57° NW 21:58:21 10° NE
Cosmos 1300 Rocket 3.8 21:53:05 16° NNW 21:56:19 46° WSW 22:00:40 10° S
CRYOSAT 2 4.3 21:51:44 10° N 21:56:36 62° W 22:01:33 10° SSW
Cosmos 1655 Rocket 4.4 21:53:03 10° SSW 21:59:04 42° W 22:05:03 10° NNW
Cosmos 1689 Rocket 2.3 21:56:03 10° SSE 21:59:08 72° ENE 22:02:11 10° N
STARLINK-1094 4.0 22:02:11 26° WSW 22:04:08 46° NW 22:08:09 10° NNE
COSMOS 2428 3.8 22:02:55 22° W 22:04:39 25° SW 22:09:20 10° S
PAYLOAD B 4.3 22:00:38 10° N 22:06:05 54° W 22:11:39 10° SSW
Cosmos 1980 3.9 22:02:09 12° NW 22:07:19 51° WSW 22:12:53 10° SSE
FENGYUN 3A 4.4 22:03:52 10° NNW 22:08:28 28° W 22:13:09 10° SW
STARLINK-1117 4.1 22:06:59 23° WSW 22:09:07 42° NW 22:13:04 10° NNE
Okean 2 Rocket 4.0 22:08:01 19° WNW 22:10:07 27° WSW 22:14:02 10° SSW
STARLINK-1111 4.5 22:07:34 11° SW 22:11:25 48° SSE 22:15:30 10° ENE
Cosmos 2151 Rocket 4.1 22:07:23 10° NW 22:11:34 38° WSW 22:15:51 10° S
H-2A R/B 3.9 22:08:55 10° SSW 22:11:21 15° WSW 22:11:21 15° WSW
ISS -2.5 22:09:26 13° SW 22:12:15 38° SSE 22:15:30 10° E
STARLINK-1078 4.2 22:11:46 21° WSW 22:14:04 38° NW 22:17:57 10° NNE
STARLINK-1073 4.3 22:12:21 10° SW 22:16:25 52° SSE 22:20:31 10° ENE
Okean O Rocket 1.7 22:13:37 10° N 22:18:01 55° W 22:22:28 10° SSW
STARLINK-1108 4.4 22:16:34 18° WSW 22:19:02 34° NW 22:22:50 10° NNE
Aureole 3 Rocket 4.2 22:15:50 10° NNE 22:19:21 46° E 22:24:05 10° SSE
STARLINK-1121 4.2 22:17:14 10° SW 22:21:25 57° SE 22:25:32 10° ENE
Helios 1A Rocket 2.9 22:20:08 10° NNE 22:24:16 85° WNW 22:28:30 10° SSW
SL-16 R/B 2.4 22:19:59 10° NNW 22:25:40 79° ENE 22:31:27 10° SSE
STARLINK-1106 4.1 22:22:13 10° SW 22:26:25 62° SE 22:30:34 10° ENE
AQUARIUS 4.2 22:24:44 10° NNE 22:29:15 88° E 22:33:51 10° SSW
Cosmos 494 Rocket 4.0 22:25:15 10° NNW 22:30:27 67° WSW 22:35:42 10° SSE
STARLINK-1112 4.0 22:27:11 10° SW 22:31:25 67° SE 22:35:35 10° ENE
Cosmos 371 Rocket 3.7 22:26:57 10° SW 22:31:33 40° WNW 22:36:03 10° N
Cosmos 1766 3.7 22:30:39 10° N 22:34:31 68° E 22:38:30 10° SSE
Envisat 3.1 22:31:01 10° NNE 22:36:07 87° E 22:41:19 10° SSW
STARLINK-1128 3.9 22:32:09 10° SW 22:36:23 73° SE 22:40:34 10° ENE
Cosmos 2084 Rocket 4.4 22:33:51 10° SSW 22:38:01 48° SE 22:42:08 10° NE
Cosmos 1674 2.9 22:34:50 10° S 22:38:46 82° E 22:42:39 10° N
Cosmos 1242 Rocket 3.4 22:37:08 10° SSW 22:40:23 29° W 22:43:32 10° NNW
Meteor 2-5 Rocket 4.2 22:35:01 10° S 22:41:01 75° E 22:47:00 10° NNE
STARLINK-1113 3.8 22:37:11 10° SW 22:41:25 80° SE 22:45:37 10° NE
H-2A R/B 3.2 22:37:52 10° N 22:41:35 40° W 22:45:21 10° SSW
Meteor 2-21 4.5 22:35:45 10° S 22:42:00 77° W 22:48:09 10° N
Cosmos 2333 Rocket 4.1 22:43:27 10° WSW 22:45:34 12° SW 22:47:43 10° SSW
Cosmos 1025 Rocket 4.4 22:42:33 10° SW 22:45:43 19° W 22:48:51 10° NW
STARLINK-1119 3.7 22:42:06 10° SW 22:46:20 87° SE 22:50:32 10° NE
Cosmos 1553 Rocket 4.1 22:40:48 10° N 22:47:15 83° W 22:53:43 10° S
Cosmos 2237 Rocket 3.2 22:43:54 10° WNW 22:48:43 27° SW 22:53:34 10° S
STARLINK-1114 3.7 22:47:06 10° SW 22:51:20 86° NW 22:55:31 10° NE
Cosmos 1733 3.4 22:48:51 10° N 22:52:45 82° E 22:56:43 10° S
Cosmos 1707 4.3 22:51:29 10° SW 22:53:55 16° W 22:56:22 10° NW
Okean 1 Rocket 3.9 22:50:13 10° NW 22:54:12 30° WSW 22:58:16 10° SSW
STARLINK-1130 (DARKSAT) 3.7 22:52:04 10° SW 22:56:18 79° NW 23:00:28 10° NE
Cosmos 1269 Rocket 4.2 22:51:15 10° NNW 22:56:28 57° WSW 23:01:45 10° SSE
BREEZE-M R/B 4.3 22:46:36 10° WSW 22:57:20 73° NW 23:02:06 10° NE
